Time,TemperatureF,DewpointF,PressureIn,WindDirection,WindDirectionDegrees,WindSpeedMPH,WindSpeedGustMPH,Humidity,HourlyPrecipIn,Conditions,Clouds,dailyrainin,SolarRadiationWatts/m^2,SoftwareType,DateUTC
2013-07-09 00:02:00,64.0,63.0,-100.00,NW,305,2.0,3.0,97,0.01,,,0.07,0.000000,,2013-07-09 04:02:00,
2013-07-09 00:11:00,64.0,63.0,-100.00,NW,305,2.0,3.0,97,0.01,,,0.07,0.000000,,2013-07-09 04:11:00,
2013-07-09 00:22:00,64.0,63.0,-100.00,NW,305,2.0,3.0,97,0.01,,,0.07,0.000000,,2013-07-09 04:22:00,
2013-07-09 01:02:00,64.0,63.0,-100.00,North,350,1.0,4.0,97,0.00,,,0.07,0.000000,,2013-07-09 05:02:00,
2013-07-09 01:12:00,64.0,63.0,-100.00,North,350,1.0,4.0,97,0.00,,,0.07,0.000000,,2013-07-09 05:12:00,
2013-07-09 01:22:00,64.0,63.0,-100.00,North,350,1.0,4.0,97,0.00,,,0.07,0.000000,,2013-07-09 05:22:00,
2013-07-09 01:52:00,64.0,63.0,-100.00,North,1,1.0,3.0,98,0.00,,,0.07,0.000000,,2013-07-09 05:52:00,
2013-07-09 02:01:00,64.0,63.0,-100.00,North,1,1.0,3.0,98,0.00,,,0.07,0.000000,,2013-07-09 06:01:00,
2013-07-09 02:11:00,64.0,63.0,-100.00,North,1,1.0,3.0,98,0.00,,,0.07,0.000000,,2013-07-09 06:11:00,
2013-07-09 02:22:00,64.0,63.0,-100.00,North,1,1.0,3.0,98,0.00,,,0.07,0.000000,,2013-07-09 06:22:00,
2013-07-09 02:53:00,64.0,63.0,-100.00,NW,307,2.0,4.0,97,0.00,,,0.07,0.000000,,2013-07-09 06:53:00,
2013-07-09 03:02:00,64.0,63.0,-100.00,NW,307,2.0,4.0,97,0.00,,,0.07,0.000000,,2013-07-09 07:02:00,
2013-07-09 03:12:00,64.0,63.0,-100.00,NW,307,2.0,4.0,97,0.00,,,0.07,0.000000,,2013-07-09 07:12:00,
2013-07-09 03:22:00,64.0,63.0,-100.00,NW,307,2.0,4.0,97,0.00,,,0.07,0.000000,,2013-07-09 07:22:00,
2013-07-09 03:53:00,64.0,63.0,-100.00,North,350,1.0,3.0,96,0.00,,,0.07,0.000000,,2013-07-09 07:53:00,
2013-07-09 04:01:00,64.0,63.0,-100.00,North,350,1.0,3.0,96,0.00,,,0.07,0.000000,,2013-07-09 08:01:00,
2013-07-09 04:11:00,64.0,63.0,-100.00,North,350,1.0,3.0,96,0.00,,,0.07,0.000000,,2013-07-09 08:11:00,
2013-07-09 04:22:00,64.0,63.0,-100.00,North,350,1.0,3.0,96,0.00,,,0.07,0.000000,,2013-07-09 08:22:00,
2013-07-09 04:52:00,64.0,63.0,-100.00,NE,34,1.0,4.0,96,0.00,,,0.07,0.000000,,2013-07-09 08:52:00,
2013-07-09 05:02:00,64.0,63.0,-100.00,NE,34,1.0,4.0,96,0.00,,,0.07,0.000000,,2013-07-09 09:02:00,
2013-07-09 05:12:00,64.0,63.0,-100.00,NE,34,1.0,4.0,96,0.00,,,0.07,0.000000,,2013-07-09 09:12:00,
2013-07-09 05:22:00,64.0,63.0,-100.00,NE,34,1.0,4.0,96,0.00,,,0.07,0.000000,,2013-07-09 09:22:00,
2013-07-09 05:53:00,64.0,63.0,-100.00,NNW,344,2.0,5.0,97,0.00,,,0.07,1.000000,,2013-07-09 09:53:00,
2013-07-09 06:02:00,64.0,63.0,-100.00,NNW,344,2.0,5.0,97,0.00,,,0.07,1.000000,,2013-07-09 10:02:00,
2013-07-09 06:11:00,64.0,63.0,-100.00,NNW,344,2.0,5.0,97,0.00,,,0.07,1.000000,,2013-07-09 10:11:00,
2013-07-09 06:22:00,64.0,63.0,-100.00,NNW,344,2.0,5.0,97,0.00,,,0.07,1.000000,,2013-07-09 10:22:00,
2013-07-09 06:52:00,64.0,63.0,-100.00,East,90,2.0,5.0,97,0.00,,,0.07,9.000000,,2013-07-09 10:52:00,
2013-07-09 07:02:00,64.0,63.0,-100.00,East,90,2.0,5.0,97,0.00,,,0.07,9.000000,,2013-07-09 11:02:00,
2013-07-09 07:11:00,64.0,63.0,-100.00,East,90,2.0,5.0,97,0.00,,,0.07,9.000000,,2013-07-09 11:11:00,
2013-07-09 07:22:00,64.0,63.0,-100.00,East,90,2.0,5.0,97,0.00,,,0.07,9.000000,,2013-07-09 11:22:00,
2013-07-09 07:53:00,65.0,64.0,-100.00,NE,35,1.0,4.0,95,0.00,,,0.07,42.000000,,2013-07-09 11:53:00,
2013-07-09 08:02:00,65.0,64.0,-100.00,NE,35,1.0,4.0,95,0.00,,,0.07,42.000000,,2013-07-09 12:02:00,
2013-07-09 08:12:00,65.0,64.0,-100.00,NE,35,1.0,4.0,95,0.00,,,0.07,42.000000,,2013-07-09 12:12:00,
2013-07-09 08:22:00,65.0,64.0,-100.00,NE,35,1.0,4.0,95,0.00,,,0.07,42.000000,,2013-07-09 12:22:00,
2013-07-09 09:01:00,66.0,64.0,-100.00,ENE,69,2.0,5.0,93,0.00,,,0.07,79.000000,,2013-07-09 13:01:00,
2013-07-09 09:11:00,66.0,64.0,-100.00,ENE,69,2.0,5.0,93,0.00,,,0.07,79.000000,,2013-07-09 13:11:00,
2013-07-09 09:22:00,66.0,64.0,-100.00,ENE,69,2.0,5.0,93,0.00,,,0.07,79.000000,,2013-07-09 13:22:00,
2013-07-09 09:53:00,67.0,64.0,-100.00,NE,43,3.0,7.0,91,0.00,,,0.07,115.000000,,2013-07-09 13:53:00,
2013-07-09 10:02:00,67.0,64.0,-100.00,NE,43,3.0,7.0,91,0.00,,,0.07,115.000000,,2013-07-09 14:02:00,
2013-07-09 10:11:00,67.0,64.0,-100.00,NE,43,3.0,7.0,91,0.00,,,0.07,115.000000,,2013-07-09 14:11:00,
2013-07-09 10:22:00,67.0,64.0,-100.00,NE,43,3.0,7.0,91,0.00,,,0.07,115.000000,,2013-07-09 14:22:00,
2013-07-09 10:53:00,68.0,63.0,-100.00,East,81,2.0,7.0,85,0.00,,,0.07,182.000000,,2013-07-09 14:53:00,
2013-07-09 11:02:00,68.0,63.0,-100.00,East,81,2.0,7.0,85,0.00,,,0.07,182.000000,,2013-07-09 15:02:00,
2013-07-09 11:12:00,68.0,63.0,-100.00,East,81,2.0,7.0,85,0.00,,,0.07,182.000000,,2013-07-09 15:12:00,
2013-07-09 11:22:00,68.0,63.0,-100.00,East,81,2.0,7.0,85,0.00,,,0.07,182.000000,,2013-07-09 15:22:00,
2013-07-09 11:52:00,71.0,65.0,-100.00,ESE,116,3.0,7.0,81,0.00,,,0.07,305.000000,,2013-07-09 15:52:00,
2013-07-09 12:02:00,71.0,65.0,-100.00,ESE,116,3.0,7.0,81,0.00,,,0.07,305.000000,,2013-07-09 16:02:00,
2013-07-09 12:12:00,71.0,65.0,-100.00,ESE,116,3.0,7.0,81,0.00,,,0.07,305.000000,,2013-07-09 16:12:00,
2013-07-09 12:22:00,71.0,65.0,-100.00,ESE,116,3.0,7.0,81,0.00,,,0.07,305.000000,,2013-07-09 16:22:00,
2013-07-09 12:53:00,71.0,62.0,-100.00,SE,127,3.0,6.0,73,0.00,,,0.07,490.000000,,2013-07-09 16:53:00,
2013-07-09 13:02:00,71.0,62.0,-100.00,SE,127,3.0,6.0,73,0.00,,,0.07,490.000000,,2013-07-09 17:02:00,
2013-07-09 13:11:00,71.0,62.0,-100.00,SE,127,3.0,6.0,73,0.00,,,0.07,490.000000,,2013-07-09 17:11:00,
2013-07-09 13:22:00,71.0,62.0,-100.00,SE,127,3.0,6.0,73,0.00,,,0.07,490.000000,,2013-07-09 17:22:00,
2013-07-09 13:53:00,73.0,62.0,-100.00,ESE,118,4.0,7.0,68,0.00,,,0.07,685.000000,,2013-07-09 17:53:00,
2013-07-09 14:02:00,73.0,62.0,-100.00,ESE,118,4.0,7.0,68,0.00,,,0.07,685.000000,,2013-07-09 18:02:00,
2013-07-09 14:11:00,73.0,62.0,-100.00,ESE,118,4.0,7.0,68,0.00,,,0.07,685.000000,,2013-07-09 18:11:00,
2013-07-09 14:22:00,73.0,62.0,-100.00,ESE,118,4.0,7.0,68,0.00,,,0.07,685.000000,,2013-07-09 18:22:00,
2013-07-09 14:52:00,72.0,62.0,-100.00,East,93,3.0,8.0,72,0.00,,,0.07,585.000000,,2013-07-09 18:52:00,
2013-07-09 15:01:00,72.0,62.0,-100.00,East,93,3.0,8.0,72,0.00,,,0.07,585.000000,,2013-07-09 19:01:00,
2013-07-09 15:11:00,72.0,62.0,-100.00,East,93,3.0,8.0,72,0.00,,,0.07,585.000000,,2013-07-09 19:11:00,
2013-07-09 15:22:00,72.0,62.0,-100.00,East,93,3.0,8.0,72,0.00,,,0.07,585.000000,,2013-07-09 19:22:00,
2013-07-09 15:52:00,72.0,64.0,-100.00,ESE,122,3.0,8.0,76,0.00,,,0.07,550.000000,,2013-07-09 19:52:00,
2013-07-09 16:02:00,72.0,64.0,-100.00,ESE,122,3.0,8.0,76,0.00,,,0.07,550.000000,,2013-07-09 20:02:00,
2013-07-09 16:11:00,72.0,64.0,-100.00,ESE,122,3.0,8.0,76,0.00,,,0.07,550.000000,,2013-07-09 20:11:00,
2013-07-09 16:22:00,72.0,64.0,-100.00,ESE,122,3.0,8.0,76,0.00,,,0.07,550.000000,,2013-07-09 20:22:00,
2013-07-09 16:52:00,67.0,63.0,-100.00,SE,127,3.0,6.0,86,0.00,,,0.07,343.000000,,2013-07-09 20:52:00,
2013-07-09 17:01:00,67.0,63.0,-100.00,SE,127,3.0,6.0,86,0.00,,,0.07,343.000000,,2013-07-09 21:01:00,
2013-07-09 17:11:00,67.0,63.0,-100.00,SE,127,3.0,6.0,86,0.00,,,0.07,343.000000,,2013-07-09 21:11:00,
2013-07-09 17:22:00,67.0,63.0,-100.00,SE,127,3.0,6.0,86,0.00,,,0.07,343.000000,,2013-07-09 21:22:00,
2013-07-09 17:52:00,66.0,63.0,-100.00,East,89,2.0,7.0,89,0.00,,,0.07,185.000000,,2013-07-09 21:52:00,
2013-07-09 18:01:00,66.0,63.0,-100.00,East,89,2.0,7.0,89,0.00,,,0.07,185.000000,,2013-07-09 22:01:00,
2013-07-09 18:11:00,66.0,63.0,-100.00,East,89,2.0,7.0,89,0.00,,,0.07,185.000000,,2013-07-09 22:11:00,
2013-07-09 18:22:00,66.0,63.0,-100.00,East,89,2.0,7.0,89,0.00,,,0.07,185.000000,,2013-07-09 22:22:00,
2013-07-09 18:53:00,66.0,63.0,-100.00,ESE,121,2.0,4.0,89,0.00,,,0.07,102.000000,,2013-07-09 22:53:00,
2013-07-09 19:02:00,66.0,63.0,-100.00,ESE,121,2.0,4.0,89,0.00,,,0.07,102.000000,,2013-07-09 23:02:00,
2013-07-09 19:12:00,66.0,63.0,-100.00,ESE,121,2.0,4.0,89,0.00,,,0.07,102.000000,,2013-07-09 23:12:00,
2013-07-09 19:22:00,66.0,63.0,-100.00,ESE,121,2.0,4.0,89,0.00,,,0.07,102.000000,,2013-07-09 23:22:00,
2013-07-09 19:53:00,65.0,63.0,-100.00,ESE,104,2.0,5.0,92,0.00,,,0.07,62.000000,,2013-07-09 23:53:00,
2013-07-09 20:01:00,65.0,63.0,-100.00,ESE,104,2.0,5.0,92,0.00,,,0.07,62.000000,,2013-07-10 00:01:00,
2013-07-09 20:11:00,65.0,63.0,-100.00,ESE,104,2.0,5.0,92,0.00,,,0.07,62.000000,,2013-07-10 00:11:00,
2013-07-09 20:22:00,65.0,63.0,-100.00,ESE,104,2.0,5.0,92,0.00,,,0.07,62.000000,,2013-07-10 00:22:00,
2013-07-09 20:52:00,64.0,63.0,-100.00,SE,125,1.0,3.0,96,0.00,,,0.04,9.000000,,2013-07-10 00:52:00,
2013-07-09 21:01:00,64.0,63.0,-100.00,SE,125,1.0,3.0,96,0.00,,,0.04,9.000000,,2013-07-10 01:01:00,
2013-07-09 21:11:00,64.0,63.0,-100.00,SE,125,1.0,3.0,96,0.00,,,0.04,9.000000,,2013-07-10 01:11:00,
2013-07-09 21:22:00,64.0,63.0,-100.00,SE,125,1.0,3.0,96,0.00,,,0.04,9.000000,,2013-07-10 01:22:00,
2013-07-09 22:02:00,64.0,63.0,-100.00,ENE,67,1.0,4.0,96,0.00,,,0.03,0.000000,,2013-07-10 02:02:00,
2013-07-09 22:12:00,64.0,63.0,-100.00,ENE,67,1.0,4.0,96,0.00,,,0.03,0.000000,,2013-07-10 02:12:00,
2013-07-09 22:23:00,64.0,63.0,-100.00,ENE,67,1.0,4.0,96,0.00,,,0.03,0.000000,,2013-07-10 02:23:00,
2013-07-09 22:53:00,63.0,62.0,-100.00,ENE,64,1.0,4.0,97,0.00,,,0.01,0.000000,,2013-07-10 02:53:00,
2013-07-09 23:01:00,63.0,62.0,-100.00,ENE,64,1.0,4.0,97,0.00,,,0.01,0.000000,,2013-07-10 03:01:00,
2013-07-09 23:12:00,63.0,62.0,-100.00,ENE,64,1.0,4.0,97,0.00,,,0.01,0.000000,,2013-07-10 03:12:00,
2013-07-09 23:22:00,63.0,62.0,-100.00,ENE,64,1.0,4.0,97,0.00,,,0.01,0.000000,,2013-07-10 03:22:00,
2013-07-09 23:52:00,63.0,62.0,-100.00,ESE,115,1.0,4.0,98,0.00,,,0.00,0.000000,,2013-07-10 03:52:00,